Location: Gazon
(48.1318°N, 1.2708°W)
Time: 22:01:38
(UTC+00:00)

Cosmos 1975 Rocket - Pass Details

Date: 18 September 2020
Orbit: 603 x 634 km, 82.5° (Epoch: 25 October)

Event Time Altitude Azimuth Distance (km) Brightness Sun altitude
Rises 19:05:04 0° 350° (N) 2,883 6.8 -9.8°
Reaches altitude 10° 19:07:18 10° 350° (N) 1,970 6.0 -10.2°
Maximum altitude 19:11:40 87° 267° (W) 613 3.0 -10.9°
Drops below altitude 10° 19:15:58 10° 173° (S) 1,945 5.4 -11.6°
Sets 19:18:10 0° 173° (S) 2,842 6.2 -12.0°
